Regional Weather Roundup
Issued by NWS

Home | Current Version | Previous Version | Graphics & Text | Print | Product List | Glossary On
Versions: 1 2 3 4 5 6 7 8 9 10 11 12 13 14 15 16 17 18 19 20 21 22 23 24 25 26 27 28 29 30 31 32 33 34 35 36 37 38 39 40 41 42 43 44 45 46 47 48 49 50
000
ASUS45 KSLC 230410
RWRUT

UTAH REGIONAL WEATHER ROUNDUP
NATIONAL WEATHER SERVICE SALT LAKE CITY UT
1000 PM MDT SAT APR 22 2017

UTZ001>011-023>025-230500-

NORTHERN UTAH

CITY           SKY/WX    TMP DP  RH WIND       PRES   REMARKS
BRIGHAM CITY   MOCLDY    54  38  54 CALM      30.04R
HILL AFB       NOT AVBL
LOGAN          MOCLDY    47  39  74 N3        30.04R
OGDEN          MOCLDY    53  34  48 E3        30.03S
SALT LAKE CITY MOCLDY    54  41  61 CALM      30.03R
TOOELE VALLEY  MOCLDY    45  39  81 CALM      30.05R
WENDOVER       CLOUDY    56  29  35 CALM      30.00F
HEBER CITY     MOCLDY    45  28  53 CALM      30.07R
WEST JORDAN    MOCLDY    52  43  69 SW7       30.05S

$$

UTZ011>015-024>027-230500-

CENTRAL/NORTHEAST UTAH

CITY           SKY/WX    TMP DP  RH WIND       PRES   REMARKS
PROVO AIRPORT  MOCLDY    52  38  58 CALM      30.06R
MOAB/CANYONLAN PTCLDY    53  14  21 CALM      30.06S
DELTA          CLOUDY    50  32  50 E6        30.04S
PRICE          MOCLDY    47  20  34 NE9       30.11R
ROOSEVELT      CLOUDY    43  30  61 CALM      30.13R
VERNAL         CLOUDY    44  22  41 NW5       30.10R

$$

UTZ013>016-019>022-027-230500-

SOUTHERN UTAH

CITY           SKY/WX    TMP DP  RH WIND       PRES   REMARKS
BRYCE CANYON   PTCLDY    42  20  41 SW5       30.19R
CEDAR CITY     PTCLDY    51  32  48 CALM      30.05R
MILFORD        MOCLDY    49  33  54 CALM      30.04R
ST GEORGE      MOCLDY    67  26  21 CALM      29.94R
HANKSVILLE     MOCLDY    54  12  19 E5        30.09R
BLANDING       PTCLDY    48  13  24 N6        30.21S

$$

REGIONAL REPORTS     COLORADO/ARIZONA

CITY           SKY/WX    TMP DP  RH WIND       PRES   REMARKS
CRAIG, CO      CLEAR     38  28  67 CALM      30.13R
GRAND JUNCTION CLEAR     50  17  27 CALM      30.09R
RIFLE, CO      CLOUDY    46  26  45 CALM      30.13R
MONTROSE, CO   CLOUDY    47  18  31 SE8       30.16R
CORTEZ, CO     CLOUDY    43  24  47 E9        30.17R
COLORADO CITY    N/A     54  30  40 SE3       30.06R
PAGE, AZ       PTCLDY    61  21  21 CALM      30.05R
GRAND CANYON   CLEAR     52  22  30 E6        30.15R
KINGMAN, AZ    PTCLDY    57  28  33 S6        29.96R
FLAGSTAFF, AZ  CLEAR     46  21  37 CALM      30.17R

$$

REGIONAL REPORTS    NEVADA/IDAHO/WYOMING

CITY           SKY/WX    TMP DP  RH WIND       PRES   REMARKS
LAS VEGAS, NV  MOCLDY    79  21  11 S3        29.87R
ELY, NY        CLOUDY    52  29  41 S10       30.05R
ELKO, NV       MOCLDY    55  38  52 CALM      29.93S
POCATELLO, ID  CLOUDY    52  28  39 S14       30.01F
BURLEY, ID     CLOUDY    54  26  34 S8        29.95S
FORT BRIDGER,    N/A     47  27  44 CALM      30.14R
EVANSTON, WY   CLOUDY    43  28  55 SW6       30.11R
ROCK SPRINGS,  CLOUDY    45  23  42 S9        30.10R
KEMMERER, WY     N/A     45  23  42 CALM      30.12S

$$



USA.gov is the U.S. government's official web portal to all federal, state and local government web resources and services.